Kitakyushu, Japan

8:56 PM JST on April 19, 2018 (GMT +0900)
Kitakyushu

Weather History for RJFR - January, 2018

Change the Weather History Date:

Friday, January 12, 2018

  Actual Average Record
Temperature  
Mean Temperature 32 °F -  
Max Temperature 35 °F 47 °F 62 °F (2002)
Min Temperature 30 °F 37 °F 28 °F (2006)
Degree Days  
Heating Degree Days 32    
Moisture  
Dew Point 18 °F    
Average Humidity 54    
Maximum Humidity 75    
Minimum Humidity 41    
Precipitation  
Precipitation 0.00 in - - ()
Sea Level Pressure  
Sea Level Pressure 30.30 in    
Wind  
Wind Speed 13 mph ()    
Max Wind Speed 18 mph    
Max Gust Speed 30 mph    
Visibility 5.8 miles    
Events Snow    
Averages and records for this station are not official NWS values.
T = Trace of Precipitation, MM = Missing Value Source: Averaged Metar Reports

Daily Weather History Graph

Daily Weather History Graph

Search for Another Location

Airport or City:

Trip Planner

Search our weather history database for the weather conditions in past years. The results will help you decide how hot, cold, wet, or windy it might be!

Date:

Astronomy

Jan. 12, 2018 Rise Set
Actual Time 7:21 AM JST 5:26 PM JST
Civil Twilight 6:54 AM JST 5:54 PM JST
Nautical Twilight 6:23 AM JST 6:24 PM JST
Astronomical Twilight 5:53 AM JST 6:55 PM JST
Moon 2:58 AM JST (1/12) 1:59 PM JST (1/12)
Length of Visible Light 10h 59m
Length of Day
10h 05m
Waning Crescent, 21% of the Moon is Illuminated
Jan 12
Waning Crescent
Jan 17
New
Jan 25
First Quarter
Jan 31
Full
Feb 8
Last Quarter

Hourly Weather History & Observations

Time (JST) Temp. Windchill Dew Point Humidity Pressure Visibility Wind Dir Wind Speed Gust Speed Precip Events Conditions
12:00 AM 30.2 °F 18.9 °F 21.2 °F 69% 30.24 in 6.2 mi West 16.1 mph 28.8 mph N/A Snow Light Snow Showers
1:00 AM 32.0 °F 22.1 °F 23.0 °F 69% 30.24 in 6.2 mi West 13.8 mph - N/A Snow Light Snow Showers
2:00 AM 32.0 °F 20.5 °F 17.6 °F 55% 30.24 in 6.2 mi West 18.4 mph - N/A Snow Light Snow Showers
2:22 AM 32.0 °F 20.8 °F 19.4 °F 60% 30.24 in 3.1 mi West 17.3 mph 28.8 mph N/A Snow Light Snow Showers
3:00 AM 32.0 °F 21.2 °F 19.4 °F 60% 30.27 in 6.2 mi West 16.1 mph - N/A Snow Light Snow Showers
4:00 AM 33.8 °F 22.8 °F 14.0 °F 44% 30.24 in 6.2 mi West 18.4 mph - N/A   Mostly Cloudy
4:29 AM 32.0 °F 20.8 °F 17.6 °F 55% 30.24 in 6.2 mi West 17.3 mph 28.8 mph N/A Snow Light Snow Showers
5:00 AM 32.0 °F 20.8 °F 19.4 °F 60% 30.27 in 6.2 mi West 17.3 mph - N/A Snow Light Snow Showers
5:38 AM 33.8 °F 23.2 °F 15.8 °F 48% 30.27 in 6.2 mi West 17.3 mph 29.9 mph N/A Snow Light Snow Showers
6:00 AM 32.0 °F 21.2 °F 14.0 °F 48% 30.27 in 6.2 mi West 16.1 mph - N/A Snow Light Snow Showers
7:00 AM 32.0 °F 21.6 °F 19.4 °F 60% 30.30 in 6.2 mi WSW 15.0 mph - N/A Snow Light Snow Showers
8:00 AM 30.2 °F 18.9 °F 21.2 °F 69% 30.30 in 6.2 mi West 16.1 mph - N/A Snow Light Snow Showers
8:18 AM 30.2 °F 19.3 °F 23.0 °F 75% 30.33 in 1.9 mi WSW 15.0 mph - N/A Snow Light Snow Showers
8:24 AM 30.2 °F 19.3 °F 23.0 °F 75% 30.33 in 3.1 mi WSW 15.0 mph - N/A Snow Light Snow Showers
9:00 AM 32.0 °F 22.5 °F 23.0 °F 69% 30.33 in 6.2 mi WSW 12.7 mph - N/A Snow Light Snow Showers
10:00 AM 33.8 °F 24.3 °F 17.6 °F 52% 30.33 in 6.2 mi WNW 13.8 mph - N/A Snow Light Snow Showers
11:00 AM 33.8 °F 24.3 °F 17.6 °F 52% 30.33 in 6.2 mi WNW 13.8 mph - N/A Snow Light Snow Showers
12:00 PM 35.6 °F 25.5 °F 17.6 °F 48% 30.30 in 6.2 mi West 17.3 mph - N/A Snow Light Snow Showers
1:00 PM 35.6 °F 26.2 °F 14.0 °F 41% 30.27 in 6.2 mi WNW 15.0 mph - N/A   Mostly Cloudy
2:00 PM 35.6 °F 26.6 °F 14.0 °F 41% 30.27 in 6.2 mi West 13.8 mph - N/A   Scattered Clouds
3:00 PM 35.6 °F 26.2 °F 17.6 °F 48% 30.30 in 6.2 mi WNW 15.0 mph - N/A   Mostly Cloudy
4:00 PM 33.8 °F 24.3 °F 17.6 °F 52% 30.30 in 6.2 mi WNW 13.8 mph - N/A   Mostly Cloudy
5:00 PM 35.6 °F 28.0 °F 15.8 °F 44% 30.30 in 6.2 mi West 10.4 mph - N/A   Mostly Cloudy
6:00 PM 35.6 °F 27.5 °F 15.8 °F 44% 30.33 in 6.2 mi WNW 11.5 mph - N/A   Mostly Cloudy
7:00 PM 33.8 °F 26.4 °F 15.8 °F 48% 30.33 in 6.2 mi WSW 9.2 mph - N/A   Mostly Cloudy
8:00 PM 35.6 °F 27.5 °F 15.8 °F 44% 30.36 in 6.2 mi WSW 11.5 mph - N/A   Mostly Cloudy
9:00 PM 35.6 °F 27.5 °F 17.6 °F 48% 30.36 in 6.2 mi WSW 11.5 mph - N/A   Mostly Cloudy
10:00 PM 35.6 °F 32.8 °F 19.4 °F 52% 30.36 in 6.2 mi NW 3.5 mph - N/A Snow Light Snow Showers
11:00 PM 35.6 °F 31.7 °F 17.6 °F 48% 30.39 in 6.2 mi West 4.6 mph - N/A   Mostly Cloudy